TimeMST,TemperatureF,Dew PointF,Humidity,Sea Level PressureIn,VisibilityMPH,Wind Direction,Wind SpeedMPH,Gust SpeedMPH,PrecipitationIn,Events,Conditions,WindDirDegrees,DateUTC
12:15 AM,32.0,23.0,69,30.26,10.0,SSE,8.1,-,N/A,,Unknown,150,2013-11-10 07:15:00
12:35 AM,33.8,23.0,65,30.26,10.0,South,18.4,25.3,N/A,,Unknown,190,2013-11-10 07:35:00
12:55 AM,33.8,23.0,65,30.26,10.0,SSE,12.7,23.0,N/A,,Unknown,160,2013-11-10 07:55:00
1:15 AM,35.6,23.0,60,30.26,10.0,SSE,9.2,23.0,N/A,,Unknown,160,2013-11-10 08:15:00
1:35 AM,35.6,23.0,60,30.26,10.0,SSW,17.3,24.2,N/A,,Unknown,200,2013-11-10 08:35:00
1:55 AM,35.6,23.0,60,30.26,10.0,South,12.7,19.6,N/A,,Unknown,180,2013-11-10 08:55:00
2:15 AM,35.6,23.0,60,30.27,10.0,South,8.1,-,N/A,,Unknown,180,2013-11-10 09:15:00
2:35 AM,37.4,23.0,56,30.28,10.0,SSW,13.8,-,N/A,,Unknown,210,2013-11-10 09:35:00
2:55 AM,37.4,23.0,56,30.28,10.0,SW,11.5,-,N/A,,Unknown,220,2013-11-10 09:55:00
3:15 AM,37.4,23.0,56,30.27,10.0,SSW,12.7,-,N/A,,Unknown,200,2013-11-10 10:15:00
3:35 AM,37.4,23.0,56,30.27,10.0,South,11.5,-,N/A,,Unknown,190,2013-11-10 10:35:00
3:55 AM,37.4,23.0,56,30.28,10.0,South,8.1,-,N/A,,Unknown,190,2013-11-10 10:55:00
4:15 AM,37.4,23.0,56,30.27,10.0,South,11.5,-,N/A,,Unknown,180,2013-11-10 11:15:00
4:35 AM,39.2,23.0,52,30.26,10.0,South,13.8,21.9,N/A,,Unknown,190,2013-11-10 11:35:00
4:55 AM,37.4,23.0,56,30.26,10.0,South,17.3,23.0,N/A,,Unknown,190,2013-11-10 11:55:00
5:15 AM,37.4,24.8,60,30.27,10.0,SSW,18.4,24.2,N/A,,Unknown,200,2013-11-10 12:15:00
5:35 AM,37.4,24.8,60,30.28,10.0,SSW,18.4,23.0,N/A,,Unknown,210,2013-11-10 12:35:00
5:55 AM,39.2,24.8,56,30.27,10.0,SSW,20.7,25.3,N/A,,Unknown,210,2013-11-10 12:55:00
6:15 AM,37.4,24.8,60,30.27,10.0,SSW,18.4,-,N/A,,Unknown,200,2013-11-10 13:15:00
6:35 AM,39.2,24.8,56,30.28,10.0,SSW,19.6,-,N/A,,Unknown,200,2013-11-10 13:35:00
6:55 AM,41.0,24.8,53,30.28,10.0,SSW,19.6,27.6,N/A,,Unknown,210,2013-11-10 13:55:00
7:15 AM,41.0,24.8,53,30.28,10.0,SSW,17.3,23.0,N/A,,Unknown,210,2013-11-10 14:15:00
7:35 AM,35.6,24.8,65,30.28,10.0,South,11.5,-,N/A,,Unknown,180,2013-11-10 14:35:00
7:55 AM,37.4,24.8,60,30.29,10.0,SSW,12.7,-,N/A,,Unknown,200,2013-11-10 14:55:00
8:15 AM,39.2,24.8,56,30.30,10.0,SSW,12.7,17.3,N/A,,Unknown,200,2013-11-10 15:15:00
8:35 AM,41.0,26.6,57,30.30,10.0,SSW,10.4,18.4,N/A,,Unknown,210,2013-11-10 15:35:00
8:55 AM,41.0,26.6,57,30.30,10.0,SSW,10.4,16.1,N/A,,Unknown,210,2013-11-10 15:55:00
9:15 AM,42.8,26.6,53,30.31,10.0,SSW,6.9,-,N/A,,Unknown,200,2013-11-10 16:15:00
9:35 AM,42.8,26.6,53,30.31,10.0,South,6.9,-,N/A,,Unknown,190,2013-11-10 16:35:00
9:55 AM,44.6,26.6,49,30.31,10.0,SSW,8.1,-,N/A,,Unknown,210,2013-11-10 16:55:00
10:15 AM,42.8,26.6,53,30.31,10.0,South,6.9,-,N/A,,Unknown,190,2013-11-10 17:15:00
10:35 AM,42.8,28.4,57,30.31,10.0,South,8.1,-,N/A,,Unknown,170,2013-11-10 17:35:00
10:55 AM,42.8,28.4,57,30.31,10.0,SSE,6.9,-,N/A,,Unknown,150,2013-11-10 17:55:00
11:15 AM,42.8,28.4,57,30.31,10.0,SE,6.9,-,N/A,,Unknown,140,2013-11-10 18:15:00
11:35 AM,42.8,28.4,57,30.31,10.0,South,9.2,-,N/A,,Unknown,180,2013-11-10 18:35:00
11:55 AM,41.0,28.4,61,30.30,10.0,SSE,8.1,-,N/A,,Unknown,150,2013-11-10 18:55:00
12:15 PM,42.8,28.4,57,30.29,10.0,South,10.4,-,N/A,,Unknown,170,2013-11-10 19:15:00
12:35 PM,42.8,28.4,57,30.29,10.0,SSE,9.2,17.3,N/A,,Unknown,160,2013-11-10 19:35:00
12:55 PM,46.4,28.4,50,30.27,10.0,SSW,19.6,26.5,N/A,,Unknown,200,2013-11-10 19:55:00
1:15 PM,46.4,28.4,50,30.26,10.0,SSW,25.3,31.1,N/A,,Unknown,200,2013-11-10 20:15:00
1:35 PM,46.4,28.4,50,30.26,10.0,SSW,25.3,32.2,N/A,,Unknown,200,2013-11-10 20:35:00
1:55 PM,48.2,28.4,46,30.26,10.0,SSW,25.3,33.4,N/A,,Unknown,210,2013-11-10 20:55:00
2:15 PM,50.0,28.4,43,30.28,10.0,SSW,17.3,26.5,N/A,,Unknown,200,2013-11-10 21:15:00
2:35 PM,50.0,28.4,43,30.27,10.0,SSW,19.6,25.3,N/A,,Unknown,200,2013-11-10 21:35:00
2:55 PM,50.0,26.6,40,30.27,10.0,SSW,20.7,28.8,N/A,,Unknown,210,2013-11-10 21:55:00
3:15 PM,48.2,26.6,43,30.27,10.0,SSW,20.7,29.9,N/A,,Unknown,200,2013-11-10 22:15:00
3:35 PM,46.4,26.6,46,30.27,10.0,SSW,17.3,25.3,N/A,,Unknown,200,2013-11-10 22:35:00
3:55 PM,48.2,28.4,46,30.28,10.0,South,13.8,19.6,N/A,,Unknown,190,2013-11-10 22:55:00
4:15 PM,46.4,28.4,50,30.28,10.0,South,15.0,-,N/A,,Unknown,190,2013-11-10 23:15:00
4:35 PM,46.4,28.4,50,30.28,10.0,South,13.8,-,N/A,,Unknown,170,2013-11-10 23:35:00
4:55 PM,46.4,28.4,50,30.28,10.0,SSE,11.5,-,N/A,,Unknown,160,2013-11-10 23:55:00
5:15 PM,46.4,30.2,53,30.28,10.0,SSE,10.4,16.1,N/A,,Unknown,150,2013-11-11 00:15:00
5:35 PM,44.6,30.2,57,30.28,10.0,SSE,12.7,19.6,N/A,,Unknown,150,2013-11-11 00:35:00
5:55 PM,44.6,28.4,53,30.28,10.0,SE,9.2,18.4,N/A,,Unknown,140,2013-11-11 00:55:00
6:15 PM,44.6,28.4,53,30.29,10.0,SSE,11.5,17.3,N/A,,Unknown,160,2013-11-11 01:15:00
6:35 PM,44.6,26.6,49,30.28,10.0,South,13.8,-,N/A,,Unknown,180,2013-11-11 01:35:00
6:55 PM,44.6,26.6,49,30.28,10.0,South,15.0,-,N/A,,Unknown,180,2013-11-11 01:55:00
7:15 PM,44.6,26.6,49,30.29,10.0,South,13.8,-,N/A,,Unknown,170,2013-11-11 02:15:00
7:35 PM,44.6,26.6,49,30.28,10.0,SSW,20.7,26.5,N/A,,Unknown,200,2013-11-11 02:35:00
7:55 PM,44.6,26.6,49,30.29,10.0,SSW,23.0,32.2,N/A,,Unknown,210,2013-11-11 02:55:00
8:15 PM,44.6,26.6,49,30.29,10.0,SSW,19.6,26.5,N/A,,Unknown,200,2013-11-11 03:15:00
8:35 PM,44.6,26.6,49,30.29,10.0,South,12.7,17.3,N/A,,Unknown,180,2013-11-11 03:35:00
8:55 PM,44.6,26.6,49,30.28,10.0,SSW,19.6,23.0,N/A,,Unknown,200,2013-11-11 03:55:00
9:15 PM,44.6,24.8,46,30.29,10.0,SSW,20.7,24.2,N/A,,Unknown,210,2013-11-11 04:15:00
9:35 PM,44.6,24.8,46,30.29,10.0,SSW,19.6,28.8,N/A,,Unknown,200,2013-11-11 04:35:00
9:55 PM,44.6,24.8,46,30.28,10.0,SSW,17.3,24.2,N/A,,Unknown,200,2013-11-11 04:55:00
10:15 PM,44.6,23.0,43,30.28,10.0,SSW,21.9,28.8,N/A,,Unknown,200,2013-11-11 05:15:00
10:35 PM,44.6,23.0,43,30.28,10.0,SSW,27.6,32.2,N/A,,Unknown,210,2013-11-11 05:35:00
10:55 PM,44.6,23.0,43,30.28,10.0,SSW,25.3,32.2,N/A,,Unknown,200,2013-11-11 05:55:00
11:15 PM,44.6,21.2,39,30.28,10.0,SSW,21.9,28.8,N/A,,Unknown,210,2013-11-11 06:15:00
11:35 PM,46.4,21.2,37,30.29,10.0,SSW,21.9,31.1,N/A,,Unknown,210,2013-11-11 06:35:00
11:55 PM,46.4,21.2,37,30.29,10.0,SW,18.4,24.2,N/A,,Unknown,220,2013-11-11 06:55:00